FW1657 Weather Reports


Display with metric or nautical units.
time (UTC)temp
F
wind
direction
speed
MPH
gust
MPH
rain 1hr
in
rain 24hr
in
rain mn
in
humidity
%
barometer
mb
20260831010055 60 79 11.0 21.0 0.00 0.06 0.02 93 1013.4
20260831004548 60 73 12.0 21.0 0.00 0.06 0.02 93 1013.3
20260831003049 60 76 11.0 18.0 0.00 0.06 0.02 93 1013.2
20260831001543 60 41 10.0 20.0 0.01 0.06 0.02 93 1013.3
20260831000055 60 77 11.0 19.0 0.01 0.06 0.02 93 1013.2
20260830234545 61 93 10.0 19.0 0.01 0.06 0.02 93 1013.0
20260830233037 61 71 10.0 22.0 0.01 0.06 0.02 93 1012.8
20260830231533 61 98 10.0 19.0 0.01 0.05 0.02 93 1012.7
20260830230033 61 27 10.0 14.0 0.02 0.05 0.02 93 1012.7
20260830224530 61 36 9.0 20.0 0.04 0.05 0.02 93 1012.9
20260830223028 61 62 9.0 15.0 0.05 0.05 0.02 92 1013.1
20260830221530 61 54 8.0 16.0 0.04 0.04 0.01 92 1012.8
20260830220022 61 56 7.0 17.0 0.03 0.03 0.03 91 1013.1
20260830214521 61 46 7.0 15.0 0.01 0.01 0.01 90 1013.3
20260830213024 61 42 8.0 13.0 0.00 0.00 0.00 89 1013.3
20260830211522 62 15 10.0 15.0 0.00 0.00 0.00 86 1013.0
20260830210019 63 9 9.0 12.0 0.00 0.00 0.00 83 1013.2
20260830204532 64 17 7.0 10.0 0.00 0.00 0.00 79 1013.0
20260830203018 64 13 6.0 10.0 0.00 0.00 0.00 78 1012.7
20260830201518 64 27 4.0 7.0 0.00 0.00 0.00 78 1012.6
20260830200019 63 27 3.0 5.0 0.00 0.00 0.00 80 1012.9
20260830194516 64 28 3.0 5.0 0.00 0.00 0.00 79 1012.7
20260830193015 64 35 2.0 4.0 0.00 0.00 0.00 78 1013.0
20260830191515 65 38 2.0 4.0 0.00 0.00 0.00 76 1012.9
20260830190014 65 38 2.0 4.0 0.00 0.00 0.00 76 1013.0
20260830184519 66 40 2.0 4.0 0.00 0.00 0.00 75 1012.9
20260830183013 67 40 3.0 5.0 0.00 0.00 0.00 73 1012.9
20260830181513 67 67 2.0 4.0 0.00 0.00 0.00 72 1012.9
20260830180016 68 41 4.0 8.0 0.00 0.00 0.00 70 1013.0
20260830174511 68 85 4.0 7.0 0.00 0.00 0.00 69 1013.1
20260830173010 69 49 4.0 10.0 0.00 0.00 0.00 68 1013.2
20260830171510 69 56 5.0 13.0 0.00 0.00 0.00 68 1013.3
20260830170009 69 71 6.0 13.0 0.00 0.00 0.00 66 1013.3
20260830164533 69 80 8.0 16.0 0.00 0.00 0.00 66 1013.4
20260830163009 70 91 11.0 18.0 0.00 0.00 0.00 63 1013.6
20260830161508 70 91 8.0 14.0 0.00 0.00 0.00 63 1013.5
20260830160008 70 85 7.0 17.0 0.00 0.00 0.00 63 1013.6
20260830154509 70 65 9.0 16.0 0.00 0.00 0.00 65 1013.7
20260830153013 70 73 9.0 16.0 0.00 0.00 0.00 64 1013.7
20260830151506 70 100 11.0 18.0 0.00 0.00 0.00 64 1013.8
20260830150004 70 48 9.0 12.0 0.00 0.00 0.00 65 1014.0
20260830144507 71 75 10.0 17.0 0.00 0.00 0.00 64 1014.0
20260830143003 71 71 8.0 19.0 0.00 0.00 0.00 63 1014.1
20260830141502 71 66 11.0 17.0 0.00 0.00 0.00 63 1014.2
20260830140106 71 88 11.0 16.0 0.00 0.00 0.00 65 1014.5
20260830134604 71 93 7.0 15.0 0.00 0.00 0.00 64 1014.5
20260830133059 71 91 11.0 18.0 0.00 0.00 0.00 63 1014.7
20260830131556 70 90 8.0 17.0 0.00 0.00 0.00 66 1014.8
20260830124555 69 93 11.0 17.0 0.00 0.00 0.00 67 1015.0
20260830123055 69 89 14.0 21.0 0.00 0.00 0.00 66 1014.9
20260830121554 70 68 11.0 23.0 0.00 0.00 0.00 66 1014.9
20260830114550 69 52 10.0 16.0 0.00 0.00 0.00 68 1014.9
20260830113047 67 53 11.0 20.0 0.00 0.00 0.00 70 1015.1
20260830111547 67 95 11.0 15.0 0.00 0.00 0.00 73 1015.1
20260830110046 67 69 11.0 18.0 0.00 0.00 0.00 73 1015.1
20260830104545 67 56 11.0 20.0 0.00 0.00 0.00 73 1015.1
20260830103043 67 86 9.0 18.0 0.00 0.00 0.00 76 1015.1
20260830101542 67 85 11.0 18.0 0.00 0.00 0.00 75 1015.1
20260830100052 65 40 10.0 20.0 0.00 0.00 0.00 78 1015.1
20260830094536 65 71 11.0 19.0 0.00 0.00 0.00 79 1015.1
20260830093035 65 102 12.0 19.0 0.00 0.00 0.00 83 1015.1
20260830091535 65 80 10.0 18.0 0.00 0.00 0.00 83 1015.0
20260830090033 65 106 8.0 17.0 0.00 0.00 0.00 82 1015.0
20260830084529 64 86 12.0 19.0 0.00 0.00 0.00 84 1014.9
20260830083029 64 67 11.0 19.0 0.00 0.00 0.00 84 1014.8
20260830081526 63 90 11.0 21.0 0.00 0.00 0.00 86 1014.9
20260830080025 63 73 11.0 19.0 0.00 0.00 0.00 86 1014.7
20260830074523 63 79 8.0 16.0 0.00 0.00 0.00 88 1014.6
20260830073025 62 90 13.0 25.0 0.00 0.00 0.00 89 1014.6
20260830071522 62 108 9.0 17.0 0.00 0.00 0.00 89 1014.4
20260830070018 62 92 9.0 18.0 0.00 0.00 0.00 90 1014.4
20260830064516 62 87 12.0 19.0 0.00 0.00 0.00 91 1014.3
20260830063015 61 83 8.0 15.0 0.00 0.00 0.00 91 1014.1
20260830061513 61 44 8.0 17.0 0.00 0.00 0.00 91 1014.1
20260830060012 61 94 7.0 14.0 0.00 0.00 0.00 91 1013.9
20260830054511 61 63 8.0 15.0 0.00 0.00 0.00 91 1013.9
20260830053010 61 71 10.0 19.0 0.00 0.00 0.00 91 1013.7
20260830051509 61 87 5.0 10.0 0.00 0.00 0.00 91 1013.7
20260830050005 61 100 7.0 16.0 0.00 0.00 0.00 91 1013.4
20260830044504 61 91 8.0 14.0 0.00 0.00 0.00 91 1013.3
20260830043003 61 55 8.0 13.0 0.00 0.00 0.00 91 1013.3
20260830041503 61 75 7.0 15.0 0.00 0.00 0.00 91 1013.2
20260830040001 61 88 9.0 16.0 0.00 0.00 0.00 91 1013.2
20260830034600 61 81 10.0 13.0 0.00 0.00 0.00 91 1013.2
20260830033100 61 84 8.0 16.0 0.00 0.00 0.00 91 1013.3
20260830031601 61 77 10.0 17.0 0.00 0.00 0.00 91 1013.2
20260830030058 61 58 10.0 19.0 0.00 0.00 0.00 90 1013.1
20260830024556 61 75 11.0 16.0 0.00 0.00 0.00 90 1012.9
20260830023106 62 95 8.0 18.0 0.00 0.00 0.00 90 1012.9
20260830021554 62 48 12.0 17.0 0.00 0.00 0.00 90 1012.9
20260830020053 62 88 8.0 15.0 0.00 0.00 0.00 90 1012.8
20260830014553 62 83 10.0 20.0 0.00 0.00 0.00 89 1012.7
20260830013051 62 23 11.0 18.0 0.00 0.00 0.00 89 1012.8
20260830011548 62 191 10.0 17.0 0.00 0.00 0.00 89 1012.8